Home > Weather > Brownsville > Past weeks

Flag for USA Weather for the Past 2 Weeks in Brownsville, Texas, USA

Now
80 °F

Sunny.


Feels Like: 85 °F
Forecast: 77 / 89 °F
Wind: 7 mph from East

Location: Brownsville / South Padre Island International Airport

Current Time: Apr 30, 2016 at 8:22:51 PM

Latest Report: Apr 30, 2016 at 7:53 PM


Visibility: 7 mi

Pressure: 29.65 "Hg

Humidity: 87%

Dew Point: 76 °F

Location of BrownsvilleLocation

Historic Weather in Brownsville — Graph

°F

Brownsville Temperature Yesterday

Maximum temperature yesterday: 84 °F (at 1:53 PM)
Minimum temperature yesterday: 79 °F (at 2:53 AM)
Average temperature yesterday: 81 °F

High & Low Weather Summary for the Past Weeks

 TemperatureHumidityPressure
High90 °F (Apr 18, 2:53 PM)100% (Apr 20, 5:03 AM)30.09 "Hg (Apr 20, 5:03 AM)
Low67 °F (Apr 18, 10:53 PM)43% (Apr 18, 3:53 PM)29.57 "Hg (Apr 27, 4:53 AM)
Average78 °F85%29.82 "Hg
* Reported Apr 15 6:53 PM — Apr 30 6:53 PM, Brownsville, Weather by CustomWeather, © 2016

Note: Actual official high and low records may vary slightly from our data, if they occured in-between our weather recording intervals... More about our weather records

Advertising

Brownsville Weather History for the Previous 24 Hours

Scroll right to see more
 ConditionsComfort  
Time TempWeatherWind HumidityBarometerVisibility
6:53 PM
Sat, Apr 30
83 °FPassing clouds.10 mph79%29.63 "Hg7 mi
5:53 PM85 °FSunny.10 mph75%29.62 "Hg7 mi
4:53 PM87 °FSunny.10 mph69%29.62 "Hg8 mi
3:53 PM88 °FSunny.9 mph67%29.63 "Hg8 mi
2:53 PM88 °FSunny.9 mph67%29.64 "Hg7 mi
1:53 PM87 °FPartly sunny.9 mph75%29.65 "Hg6 mi
12:53 PM86 °FPartly sunny.5 mph77%29.66 "Hg5 mi
12:03 PM82 °FFog.7 mph91%29.67 "Hg2 mi
11:02 AM79 °FLight rain. Fog.5 mph97%29.68 "Hg2 mi
10:53 AM79 °FLight rain. Fog.5 mph94%29.67 "Hg1 mi
10:00 AM81 °FMore clouds than sun.8 mph85%29.66 "Hg5 mi
8:53 AM80 °FFog.13 mph90%29.62 "Hg5 mi
7:53 AM78 °FFog.16 mph96%29.59 "Hg4 mi
6:53 AM78 °FFog.12 mph93%29.57 "Hg4 mi
5:53 AM78 °FFog.13 mph93%29.58 "Hg4 mi
4:53 AM78 °FFog.12 mph93%29.57 "Hg5 mi
3:53 AM78 °FFog.12 mph93%29.58 "Hg5 mi
2:53 AM78 °FFog.10 mph93%29.59 "Hg5 mi
1:53 AM78 °FFog.10 mph93%29.60 "Hg5 mi
1:04 AM79 °FFog.14 mph94%29.62 "Hg6 mi
11:53 PM
Fri, Apr 29
79 °FFog.16 mph94%29.63 "Hg6 mi
10:53 PM79 °FFog.15 mph94%29.64 "Hg6 mi
9:53 PM79 °FFog.15 mph94%29.62 "Hg6 mi
8:53 PM80 °FFog.14 mph90%29.61 "Hg6 mi
Weather by CustomWeather, © 2016

See weather overviewHow to use our weather pages